Sigonella, Italy

7:22 PM CEST on June 26, 2017 (GMT +0200)
Sigonella Mil

Weather History for LICZ - January, 2013

Change the Weather History Date:

Tuesday, January 1, 2013

  Actual Average Record
Temperature  
Mean Temperature 50 °F -  
Max Temperature 64 °F 60 °F 66 °F (1997)
Min Temperature 35 °F 41 °F 29 °F (2017)
Degree Days  
Heating Degree Days 16    
Moisture  
Dew Point 40 °F    
Average Humidity 77    
Maximum Humidity 100    
Minimum Humidity 30    
Precipitation  
Precipitation 0.00 in 0.08 in - ()
Sea Level Pressure  
Sea Level Pressure 30.15 in    
Wind  
Wind Speed 4 mph ()    
Max Wind Speed 9 mph    
Max Gust Speed -    
Visibility 6.0 miles    
Events      
Averages and records for this station are not official NWS values.
T = Trace of Precipitation, MM = Missing Value Source: Averaged Metar Reports

Daily Weather History Graph

Daily Weather History Graph

Search for Another Location

Airport or City:

Trip Planner

Search our weather history database for the weather conditions in past years. The results will help you decide how hot, cold, wet, or windy it might be!

Date:

Astronomy

Jan. 01, 2013 Rise Set
Actual Time 7:14 AM CET 4:53 PM CET
Civil Twilight 6:45 AM CET 5:22 PM CET
Nautical Twilight 6:13 AM CET 5:55 PM CET
Astronomical Twilight 5:41 AM CET 6:26 PM CET
Moon 9:01 PM CET (1/1) 9:23 AM CET (1/1)
Length of Visible Light 10h 36m
Length of Day
9h 38m
Waning Gibbous, 85% of the Moon is Illuminated
Jan 1
Waning Gibbous
Jan 5
Last Quarter
Jan 11
New
Jan 19
First Quarter
Jan 27
Full

Hourly Weather History & Observations

Time (CET) Temp. Windchill Dew Point Humidity Pressure Visibility Wind Dir Wind Speed Gust Speed Precip Events Conditions
12:55 AM 39.2 °F 35.9 °F 39.2 °F 100% 30.18 in - WNW 4.6 mph - N/A   Clear
1:00 AM 40 °F - 39 °F 95% 30.20 in 6 mi WNW 4.6 mph - -  
1:55 AM 41.0 °F 37.1 °F 39.2 °F 93% 30.18 in - WNW 5.8 mph - N/A   Clear
2:55 AM 41.0 °F 38.0 °F 39.2 °F 93% 30.18 in - West 4.6 mph - N/A   Clear
4:00 AM 38 °F - 38 °F 99% 30.17 in 6 mi West 2.3 mph - -  
4:55 AM 37.4 °F 33.8 °F 37.4 °F 100% 30.15 in - West 4.6 mph - N/A   Clear
5:55 AM 37.4 °F 32.8 °F 37.4 °F 100% 30.15 in - WNW 5.8 mph - N/A   Clear
6:55 AM 35.6 °F 29.9 °F 35.6 °F 100% 30.15 in 5.0 mi WSW 6.9 mph - N/A   Unknown
7:00 AM 36 °F - 36 °F 98% 30.17 in 5 mi WSW 6.9 mph - -   Mist
7:55 AM 35.6 °F - 35.6 °F 100% 30.15 in 5.0 mi West 2.3 mph - N/A   Unknown
8:55 AM 39.2 °F 35.0 °F 39.2 °F 100% 30.15 in 5.0 mi WNW 5.8 mph - N/A   Unknown
9:55 AM 46.4 °F 44.3 °F 42.8 °F 87% 30.15 in 5.0 mi WNW 4.6 mph - N/A   Partly Cloudy
10:00 AM 46 °F - 43 °F 85% 30.18 in 5 mi WNW 4.6 mph - -   Mist
10:55 AM 51.8 °F - 41.0 °F 67% 30.15 in 6.2 mi WNW 5.8 mph - N/A   Partly Cloudy
11:55 AM 57.2 °F - 41.0 °F 55% 30.15 in 6.2 mi West 5.8 mph - N/A   Partly Cloudy
12:55 PM 59.0 °F - 39.2 °F 48% 30.12 in 6.2 mi WSW 5.8 mph - N/A   Partly Cloudy
1:00 PM 60 °F - 39 °F 34% 30.14 in 6 mi WSW 5.8 mph - -   Scattered Clouds
1:55 PM 62.6 °F - 35.6 °F 37% 30.09 in 6.2 mi West 5.8 mph - N/A   Partly Cloudy
2:55 PM 64.4 °F - 32.0 °F 30% 30.09 in 6.2 mi West 4.6 mph - N/A   Partly Cloudy
3:55 PM 62.6 °F - 32.0 °F 32% 30.09 in 6.2 mi WSW 9.2 mph - N/A   Partly Cloudy
4:55 PM 57.2 °F - 39.2 °F 51% 30.12 in 6.2 mi WSW 5.8 mph - N/A   Scattered Clouds
5:55 PM 51.8 °F - 42.8 °F 71% 30.12 in 6.2 mi ESE 3.5 mph - N/A   Scattered Clouds
6:55 PM 51.8 °F - 41.0 °F 67% 30.12 in 6.2 mi SE 6.9 mph - N/A   Mostly Cloudy
7:00 PM 51 °F - 42 °F 61% 30.15 in 6 mi SE 6.9 mph - -   Scattered Clouds
7:55 PM 50.0 °F - 42.8 °F 76% 30.15 in 6.2 mi North 3.5 mph - N/A   Mostly Cloudy
8:55 PM 46.4 °F - 42.8 °F 87% 30.15 in 6.2 mi SW 2.3 mph - N/A   Scattered Clouds
9:55 PM 50.0 °F - 46.4 °F 87% 30.15 in 6.2 mi WNW 2.3 mph - N/A   Scattered Clouds
10:00 PM 49 °F - 47 °F 88% 30.17 in 9 mi WNW 2.3 mph - -   Partly Cloudy
10:55 PM 48.2 °F - 44.6 °F 87% 30.15 in 6.2 mi North 3.5 mph - N/A   Mostly Cloudy
11:55 PM 48.2 °F - 44.6 °F 87% 30.15 in 6.2 mi WNW 2.3 mph - N/A   Scattered Clouds